Weather in Ellos

Sweden     58°10′36″N   11°28′23″E
temp.,
°C
wind,
m/s
gust,
m/s
humid.,
%
clouds,
%
prec.,
mm/h
press.,
hPa
HPBL,
m
17 june, thu
thu1723:00+14sse5783100 0.0 1017139
02:00+13sse46865 0.0 1017103
05:00+13se4787100 0.0 1017150
08:00+15se57694 0.0 1016212
11:00+17sse486089 0.0 1016289
14:00+17s51068100 0.0 1016177
17:00+18s71573100 0.0 1014253
20:00+18s8168135 0.0 1013303
18 june, fri
fri1823:00+18sse81783100 0.0 1013297
02:00+17s7159099 0.6 1012257
05:00+16s71094100 0.4 1012180
08:00+15ssw4598100 0.4 1013175
11:00+15ssw569499 0.1 1014260
14:00+16sw469156 0.1 1014228
17:00+16sw4589100 0.0 1014176
20:00+15sw2290100 0.3 101468
19 june, sat
sat1923:00+15ne1189100 0.1 101311
02:00+16ene3389100 0.9 101342
05:00+16ene479798 0.9 1010103
08:00+18se489035 1.9 1009164
11:00+17s9149174 0.1 1009330
14:00+18s10159299 0.1 1009434
17:00+14sw11149062 0.2 1010756
20:00+13sw11148858 0.2 1011551
20 june, sun
sun2023:00+13sw9108553 0.0 1013539
02:00+13sw798489 0.0 1013466
05:00+13sw5780100 0.0 1013391
08:00+13s5674100 0.0 1014537
11:00+14s567154 0.0 1014413
14:00+15s3460100 0.0 1014285
17:00+15w015988 0.0 1012110
20:00+17n335858 0.0 101034
21 june, mon
mon2123:00+16e466290 0.0 100983
02:00+16se3474100 0.2 100834
05:00+16sse4698100 1.5 1007115
08:00+16sse47100100 4.6 1007163
11:00+16ssw3599100 0.2 1008127
14:00+16w2299100 0.4 100879
17:00+15w459889 0.1 1009151
20:00+15w349014 0.1 1009148